H1 CPF 2 NER 2024 8 2 9 215 01 glonass127 H2 1106403 9127 37869 2024 8 2 0 0 0 2024 8 5 23 45 0 900 1 1 0 0 0 1 H9 10 0 60524 0.00000 0 -3986218.062 14510022.476 -20551289.409 10 0 60524 900.00000 0 -5893300.036 16043798.353 -18893230.668 10 0 60524 1800.00000 0 -7509929.924 17565047.747 -16866887.952 10 0 60524 2700.00000 0 -8817356.476 19011456.230 -14511992.078 10 0 60524 3600.00000 0 -9809796.670 20320295.513 -11874628.177 10 0 60524 4500.00000 0 -10494391.608 21431073.133 -9006314.652 10 0 60524 5400.00000 0 -10890620.474 22288100.695 -5962980.237 10 0 60524 6300.00000 0 -11029201.015 22842872.552 -2803860.617 10 0 60524 7200.00000 0 -10950526.446 23056155.449 409662.590 10 0 60524 8100.00000 0 -10702707.823 22899702.497 3615257.039 10 0 60524 9000.00000 0 -10339306.880 22357521.177 6750845.456 10 0 60524 9900.00000 0 -9916856.525 21426644.133 9755798.690 10 0 60524 10800.00000 0 -9492274.200 20117372.496 12572093.655 10 0 60524 11700.00000 0 -9120276.831 18452983.402 15145414.959 10 0 60524 12600.00000 0 -8850905.204 16468915.334 17426180.649 10 0 60524 13500.00000 0 -8727260.244 14211466.001 19370474.349 10 0 60524 14400.00000 0 -8783544.404 11736056.954 20940868.140 10 0 60524 15300.00000 0 -9043488.439 9105136.197 22107122.609 10 0 60524 16200.00000 0 -9519227.881 6385804.150 22846752.773 10 0 60524 17100.00000 0 -10210675.272 3647259.000 23145450.721 10 0 60524 18000.00000 0 -11105414.157 958164.456 22997358.097 10 0 60524 18900.00000 0 -12179119.942 -1615954.200 22405183.689 10 0 60524 19800.00000 0 -13396491.575 -4015180.912 21380163.666 10 0 60524 20700.00000 0 -14712657.391 -6187446.727 19941864.265 10 0 60524 21600.00000 0 -16074999.184 -8090443.965 18117829.062 10 0 60524 22500.00000 0 -17425321.288 -9693138.444 15943075.422 10 0 60524 23400.00000 0 -18702276.738 -10976817.206 13459447.279 10 0 60524 24300.00000 0 -19843951.363 -11935627.647 10714834.055 10 0 60524 25200.00000 0 -20790499.084 -12576584.447 7762268.207 10 0 60524 26100.00000 0 -21486718.437 -12919042.407 4658916.667 10 0 60524 27000.00000 0 -21884461.646 -12993655.605 1464984.028 10 0 60524 27900.00000 0 -21944773.382 -12840865.008 -1757452.281 10 0 60524 28800.00000 0 -21639666.762 -12508977.081 -4945652.387 10 0 60524 29700.00000 0 -20953458.695 -12051913.884 -8037445.866 10 0 60524 30600.00000 0 -19883604.848 -11526729.957 -10972459.995 10 0 60524 31500.00000 0 -18440995.618 -10991002.020 -13693318.576 10 0 60524 32400.00000 0 -16649697.511 -10500203.732 -16146785.873 10 0 60524 33300.00000 0 -14546148.269 -10105178.946 -18284831.024 10 0 60524 34200.00000 0 -12177837.902 -9849823.105 -20065589.852 10 0 60524 35100.00000 0 -9601530.134 -9769073.620 -21454203.259 10 0 60524 36000.00000 0 -6881098.909 -9887296.744 -22423514.140 10 0 60524 36900.00000 0 -4085071.336 -10217141.210 -22954607.963 10 0 60524 37800.00000 0 -1283981.155 -10758908.455 -23037185.751 10 0 60524 38700.00000 0 1452355.163 -11500466.685 -22669762.029 10 0 60524 39600.00000 0 4057524.413 -12417712.290 -21859684.180 10 0 60524 40500.00000 0 6471051.513 -13475558.255 -20622973.637 10 0 60524 41400.00000 0 8640676.908 -14629406.482 -18983993.187 10 0 60524 42300.00000 0 10524281.645 -15827040.061 -16974948.385 10 0 60524 43200.00000 0 12091380.844 -17010853.695 -14635234.512 10 0 60524 44100.00000 0 13324125.155 -18120326.298 -12010643.641 10 0 60524 45000.00000 0 14217771.040 -19094629.804 -9152449.155 10 0 60524 45900.00000 0 14780603.572 -19875263.033 -6116387.339 10 0 60524 46800.00000 0 15033318.727 -20408598.989 -2961557.443 10 0 60524 47700.00000 0 15007894.857 -20648238.303 250737.036 10 0 60524 48600.00000 0 14746004.311 -20557070.448 3458182.403 10 0 60524 49500.00000 0 14297034.974 -20108957.262 6598660.596 10 0 60524 50400.00000 0 13715807.179 -19289969.683 9611443.390 10 0 60524 51300.00000 0 13060083.350 -18099127.617 12438352.586 10 0 60524 52200.00000 0 12387975.474 -16548613.713 15024864.911 10 0 60524 53100.00000 0 11755358.821 -14663453.536 17321141.960 10 0 60524 54000.00000 0 11213399.225 -12480676.394 19282967.371 10 0 60524 54900.00000 0 10806295.869 -10047991.953 20872575.459 10 0 60524 55800.00000 0 10569332.100 -7422037.044 22059357.641 10 0 60524 56700.00000 0 10527313.974 -4666264.017 22820435.221 10 0 60524 57600.00000 0 10693460.221 -1848555.945 23141089.306 10 0 60524 58500.00000 0 11068789.120 961335.260 23015040.818 10 0 60524 59400.00000 0 11642027.756 3694424.876 22444575.796 10 0 60524 60300.00000 0 12390048.190 6285099.610 21440513.409 10 0 60524 61200.00000 0 13278813.887 8673585.052 20022016.350 10 0 60524 62100.00000 0 14264799.076 10808176.493 18216245.662 10 0 60524 63000.00000 0 15296824.336 12647142.188 16057864.446 10 0 60524 63900.00000 0 16318234.299 14160220.738 13588397.479 10 0 60524 64800.00000 0 17269328.698 15329650.149 10855456.437 10 0 60524 65700.00000 0 18089946.687 16150684.795 7911843.067 10 0 60524 66600.00000 0 18722096.909 16631577.172 4814545.451 10 0 60524 67500.00000 0 19112522.782 16793023.402 1623645.095 10 0 60524 68400.00000 0 19215093.955 16667093.976 -1598845.034 10 0 60524 69300.00000 0 18992921.163 16295693.105 -4790189.160 10 0 60524 70200.00000 0 18420102.470 15728610.599 -7888160.084 10 0 60524 71100.00000 0 17483023.882 15021248.129 -10832268.169 10 0 60524 72000.00000 0 16181155.856 14232116.385 -13564962.195 10 0 60524 72900.00000 0 14527308.671 13420210.193 -16032776.578 10 0 60524 73800.00000 0 12547332.820 12642374.450 -18187400.269 10 0 60524 74700.00000 0 10279274.677 11950774.653 -19986644.167 10 0 60524 75600.00000 0 7772021.390 11390581.495 -21395286.075 10 0 60524 76500.00000 0 5083491.179 10997969.857 -22385775.015 10 0 60524 77400.00000 0 2278445.127 10798518.811 -22938779.829 10 0 60524 78300.00000 0 -573987.121 10806081.716 -23043570.656 10 0 60524 79200.00000 0 -3402963.027 11022174.869 -22698225.620 10 0 60524 80100.00000 0 -6138651.778 11435910.465 -21909658.993 10 0 60524 81000.00000 0 -8714912.813 12024475.900 -20693471.096 10 0 60524 81900.00000 0 -11071815.569 12754137.690 -19073623.999 10 0 60524 82800.00000 0 -13157894.990 13581725.674 -17081950.869 10 0 60524 83700.00000 0 -14932049.158 14456532.589 -14757510.234 10 0 60524 84600.00000 0 -16365001.152 15322546.548 -12145799.563 10 0 60524 85500.00000 0 -17440266.179 16120920.062 -9297845.397 10 0 60525 0.00000 0 -18154586.383 16792569.604 -6269189.804 10 0 60525 900.00000 0 -18517818.835 17280795.184 -3118792.829 10 0 60525 1800.00000 0 -18552284.187 17533808.033 92122.252 10 0 60525 2700.00000 0 -18291608.174 17507061.178 3301262.908 10 0 60525 3600.00000 0 -17779106.849 17165284.595 6446472.907 10 0 60525 4500.00000 0 -17065786.465 16484140.968 9466927.681 10 0 60525 5400.00000 0 -16208043.751 15451433.979 12304296.719 10 0 60525 6300.00000 0 -15265164.070 14067820.130 14903851.707 10 0 60525 7200.00000 0 -14296722.383 12346995.722 17215500.606 10 0 60525 8100.00000 0 -13359995.116 10315352.233 19194729.799 10 0 60525 9000.00000 0 -12507489.727 8011114.863 20803438.415 10 0 60525 9900.00000 0 -11784693.349 5482999.728 22010651.058 10 0 60525 10800.00000 0 -11228132.450 2788444.314 22793097.400 10 0 60525 11700.00000 0 -10863822.582 -8517.398 23135649.305 10 0 60525 12600.00000 0 -10706171.372 -2839649.695 23031608.327 10 0 60525 13500.00000 0 -10757379.674 -5635083.699 22482838.684 10 0 60525 14400.00000 0 -11007365.838 -8325956.655 21499743.007 10 0 60525 15300.00000 0 -11434217.009 -10847015.760 20101080.418 10 0 60525 16200.00000 0 -12005150.195 -13139081.316 18313628.896 10 0 60525 17100.00000 0 -12677945.030 -15151269.123 16171696.231 10 0 60525 18000.00000 0 -13402790.704 -16842880.906 13716486.516 10 0 60525 18900.00000 0 -14124472.045 -18184884.428 10995331.694 10 0 60525 19800.00000 0 -14784805.088 -19160920.982 8060800.400 10 0 60525 20700.00000 0 -15325221.144 -19767796.791 4969699.117 10 0 60525 21600.00000 0 -15689391.121 -20015435.961 1781983.207 10 0 60525 22500.00000 0 -15825779.038 -19926294.896 -1440402.125 10 0 60525 23400.00000 0 -15690015.487 -19534260.857 -4634728.712 10 0 60525 24300.00000 0 -15246988.421 -18883079.512 -7738716.233 10 0 60525 25200.00000 0 -14472559.867 -18024376.835 -10691761.882 10 0 60525 26100.00000 0 -13354832.498 -17015358.691 -13436143.172 10 0 60525 27000.00000 0 -11894908.981 -15916285.917 -15918168.326 10 0 60525 27900.00000 0 -10107108.655 -14787832.921 -18089249.549 10 0 60525 28800.00000 0 -8018629.517 -13688443.374 -19906875.896 10 0 60525 29700.00000 0 -5668667.613 -12671796.948 -21335464.683 10 0 60525 30600.00000 0 -3107029.488 -11784496.393 -22347073.075 10 0 60525 31500.00000 0 -392295.521 -11064074.675 -22921954.659 10 0 60525 32400.00000 0 2410388.576 -10537407.832 -23048949.382 10 0 60525 33300.00000 0 5231798.768 -10219601.403 -22725699.002 10 0 60525 34200.00000 0 8001292.913 -10113397.479 -21958684.118 10 0 60525 35100.00000 0 10649531.697 -10209126.667 -20763082.832 10 0 60525 36000.00000 0 13111145.546 -10485205.498 -19162454.912 10 0 60525 36900.00000 0 15327235.376 -10909156.210 -17188259.118 10 0 60525 37800.00000 0 17247602.772 -11439103.384 -14879214.794 10 0 60525 38700.00000 0 18832617.117 -12025681.584 -12280522.002 10 0 60525 39600.00000 0 20054643.182 -12614270.873 -9442957.284 10 0 60525 40500.00000 0 20898971.766 -13147463.553 -6421864.481 10 0 60525 41400.00000 0 21364217.399 -13567656.163 -3276061.849 10 0 60525 42300.00000 0 21462169.764 -13819656.206 -66688.118 10 0 60525 43200.00000 0 21217108.572 -13853193.174 3143989.125 10 0 60525 44100.00000 0 20664613.970 -13625228.263 6293779.131 10 0 60525 45000.00000 0 19849925.261 -13101966.360 9321764.365 10 0 60525 45900.00000 0 18825919.019 -12260486.951 12169465.024 10 0 60525 46800.00000 0 17650792.722 -11089926.981 14781950.314 10 0 60525 47700.00000 0 16385551.400 -9592167.521 17108876.647 10 0 60525 48600.00000 0 15091402.036 -7781996.696 19105434.734 10 0 60525 49500.00000 0 13827163.400 -5686742.674 20733189.613 10 0 60525 50400.00000 0 12646797.640 -3345391.968 21960799.704 10 0 60525 51300.00000 0 11597164.449 -807228.823 22764603.246 10 0 60525 52200.00000 0 10716089.178 1869949.512 23129062.655 10 0 60525 53100.00000 0 10030823.432 4621969.984 23047059.558 10 0 60525 54000.00000 0 9556960.784 7380687.851 22520035.467 10 0 60525 54900.00000 0 9297852.021 10076561.363 21557975.301 10 0 60525 55800.00000 0 9244544.326 12641293.623 20179233.203 10 0 60525 56700.00000 0 9376247.764 15010435.087 18410202.467 10 0 60525 57600.00000 0 9661311.117 17125841.136 16284833.784 10 0 60525 58500.00000 0 10058668.234 18937884.173 13844008.614 10 0 60525 59400.00000 0 10519696.509 20407328.889 11134777.075 10 0 60525 60300.00000 0 10990411.547 21506792.223 8209472.473 10 0 60525 61200.00000 0 11413907.380 22221725.913 5124717.329 10 0 60525 62100.00000 0 11732940.427 22550878.701 1940338.403 10 0 60525 63000.00000 0 11892548.220 22506216.674 -1281789.400 10 0 60525 63900.00000 0 11842591.405 22112302.810 -4478948.069 10 0 60525 64800.00000 0 11540109.662 21405159.858 -7588806.663 10 0 60525 65700.00000 0 10951389.230 20430662.933 -10550651.604 10 0 60525 66600.00000 0 10053651.280 19242528.822 -13306591.357 10 0 60525 67500.00000 0 8836286.185 17899986.852 -15802709.980 10 0 60525 68400.00000 0 7301577.969 16465230.381 -17990144.751 10 0 60525 69300.00000 0 5464885.119 15000757.989 -19826064.493 10 0 60525 70200.00000 0 3354267.522 13566718.445 -21274527.448 10 0 60525 71100.00000 0 1009573.323 12218373.593 -22307200.153 10 0 60525 72000.00000 0 -1518976.921 11003788.178 -22903921.963 10 0 60525 72900.00000 0 -4172649.562 9961845.605 -23053103.418 10 0 60525 73800.00000 0 -6886422.251 9120674.312 -22751950.403 10 0 60525 74700.00000 0 -9591479.192 8496551.315 -22006509.990 10 0 60525 75600.00000 0 -12217871.617 8093328.548 -20831537.811 10 0 60525 76500.00000 0 -14697230.980 7902404.779 -19250190.660 10 0 60525 77400.00000 0 -16965420.408 7903242.171 -17293551.819 10 0 60525 78300.00000 0 -18965013.105 8064403.078 -15000000.019 10 0 60525 79200.00000 0 -20647494.246 8345060.383 -12414436.195 10 0 60525 80100.00000 0 -21975095.169 8696914.640 -9587384.957 10 0 60525 81000.00000 0 -22922184.800 9066434.289 -6573990.117 10 0 60525 81900.00000 0 -23476162.457 9397321.979 -3432925.407 10 0 60525 82800.00000 0 -23637817.501 9633101.099 -225243.003 10 0 60525 83700.00000 0 -23421143.989 9719712.269 2986816.808 10 0 60525 84600.00000 0 -22852621.327 9608009.974 6141031.191 10 0 60525 85500.00000 0 -21969994.051 9256054.462 9176392.164 10 0 60526 0.00000 0 -20820604.446 8631103.466 12034272.964 10 0 60526 900.00000 0 -19459348.885 7711220.942 14659543.454 10 0 60526 1800.00000 0 -17946345.878 6486437.627 17001610.816 10 0 60526 2700.00000 0 -16344411.171 4959415.012 19015372.582 10 0 60526 3600.00000 0 -14716445.893 3145586.588 20662062.029 10 0 60526 4500.00000 0 -13122844.449 1072770.465 21909973.487 10 0 60526 5400.00000 0 -11619028.109 -1219730.957 22735055.566 10 0 60526 6300.00000 0 -10253204.549 -3682508.197 23121362.725 10 0 60526 7200.00000 0 -9064444.259 -6257843.645 23061357.796 10 0 60526 8100.00000 0 -8081151.833 -8881860.440 22556060.365 10 0 60526 9000.00000 0 -7319994.329 -11486935.341 21615038.054 10 0 60526 9900.00000 0 -6785330.659 -14004278.858 20256240.061 10 0 60526 10800.00000 0 -6469165.912 -16366578.808 18505674.652 10 0 60526 11700.00000 0 -6351633.381 -18510600.250 16396934.698 10 0 60526 12600.00000 0 -6401985.694 -20379635.693 13970577.922 10 0 60526 13500.00000 0 -6580055.386 -21925704.653 11273371.155 10 0 60526 14400.00000 0 -6838125.648 -23111410.956 8357410.560 10 0 60526 15300.00000 0 -7123134.349 -23911379.288 5279132.581 10 0 60526 16200.00000 0 -7379119.746 -24313209.254 2098232.966 10 0 60526 17100.00000 0 -7549805.219 -24317904.689 -1123486.350 10 0 60526 18000.00000 0 -7581213.401 -23939757.717 -4323320.438 10 0 60526 18900.00000 0 -7424197.797 -23205690.025 -7438890.894 10 0 60526 19800.00000 0 -7036782.546 -22154077.024 -10409376.711 10 0 60526 20700.00000 0 -6386208.311 -20833103.016 -13176720.798 10 0 60526 21600.00000 0 -5450594.349 -19298716.071 -15686786.589 10 0 60526 22500.00000 0 -4220142.887 -17612268.964 -17890439.902 10 0 60526 23400.00000 0 -2697831.540 -15837946.612 -19744532.611 10 0 60526 24300.00000 0 -899561.558 -14040089.905 -21212766.834 10 0 60526 25200.00000 0 1146246.633 -12280530.576 -22266420.985 10 0 60526 26100.00000 0 3399595.099 -10616051.256 -22884922.170 10 0 60526 27000.00000 0 5810348.360 -9096079.346 -23056252.922 10 0 60526 27900.00000 0 8320111.107 -7760712.921 -22777184.076 10 0 60526 28800.00000 0 10864464.213 -6639162.245 -22053329.426 10 0 60526 29700.00000 0 13375464.174 -5748672.128 -20899021.842 10 0 60526 30600.00000 0 15784300.036 -5093969.275 -19337014.345 10 0 60526 31500.00000 0 18023995.328 -4667255.910 -17398013.425 10 0 60526 32400.00000 0 20032040.993 -4448747.283 -15120055.400 10 0 60526 33300.00000 0 21752848.810 -4407727.296 -12547739.773 10 0 60526 34200.00000 0 23139922.829 -4504074.456 -9731336.443 10 0 60526 35100.00000 0 24157658.974 -4690190.505 -6725785.971 10 0 60526 36000.00000 0 24782699.208 -4913247.438 -3589613.989 10 0 60526 36900.00000 0 25004785.854 -5117655.654 -383782.302 10 0 60526 37800.00000 0 24827083.111 -5247647.401 2829500.025 10 0 60526 38700.00000 0 24265955.280 -5249865.580 5987981.958 10 0 60526 39600.00000 0 23350213.868 -5075848.641 9030568.767 10 0 60526 40500.00000 0 22119867.691 -4684307.433 11898490.616 10 0 60526 41400.00000 0 20624430.201 -4043099.318 14536419.997 10 0 60526 42300.00000 0 18920855.983 -3130817.946 16893517.952 10 0 60526 43200.00000 0 17071192.886 -1937933.453 18924390.932 10 0 60526 44100.00000 0 15140047.086 -467436.433 20589942.071 10 0 60526 45000.00000 0 13191965.306 1265040.565 21858102.782 10 0 60526 45900.00000 0 11288841.043 3231629.153 22704432.786 10 0 60526 46800.00000 0 9487450.223 5393142.827 23112578.890 10 0 60526 47700.00000 0 7837216.115 7700469.785 23074585.039 10 0 60526 48600.00000 0 6378293.977 10096385.453 22591048.402 10 0 60526 49500.00000 0 5140053.055 12517712.428 21671118.436 10 0 60526 50400.00000 0 4140017.770 14897741.472 20332338.180 10 0 60526 51300.00000 0 3383311.613 17168816.273 18600329.347 10 0 60526 52200.00000 0 2862627.195 19264977.549 16508325.184 10 0 60526 53100.00000 0 2558724.665 21124558.811 14096557.645 10 0 60526 54000.00000 0 2441439.170 22692627.111 11411508.034 10 0 60526 54900.00000 0 2471156.872 23923167.487 8505032.963 10 0 60526 55800.00000 0 2600699.317 24780919.232 5433380.238 10 0 60526 56700.00000 0 2777538.260 25242785.698 2256111.911 10 0 60526 57600.00000 0 2946248.387 25298756.345 -965045.816 10 0 60526 58500.00000 0 3051094.409 24952299.707 -4167403.878 10 0 60526 59400.00000 0 3038642.279 24220208.003 -7288539.150 10 0 60526 60300.00000 0 2860282.275 23131897.408 -10267525.826 10 0 60526 61200.00000 0 2474554.616 21728191.424 -13046143.714 10 0 60526 62100.00000 0 1849176.037 20059637.252 -15570037.870 10 0 60526 63000.00000 0 962678.141 18184425.585 -17789804.665 10 0 60526 63900.00000 0 -194415.172 16166001.745 -19661980.804 10 0 60526 64800.00000 0 -1618924.091 14070469.771 -21149913.824 10 0 60526 65700.00000 0 -3294893.702 11963900.178 -22224495.328 10 0 60526 66600.00000 0 -5194026.111 9909656.433 -22864741.225 10 0 60526 67500.00000 0 -7276646.786 7965854.198 -23058206.816 10 0 60526 68400.00000 0 -9493164.735 6183061.458 -22801228.313 10 0 60526 69300.00000 0 -11785964.755 4602336.922 -22098986.274 10 0 60526 70200.00000 0 -14091651.320 3253689.071 -20965390.423 10 0 60526 71100.00000 0 -16343548.727 2155019.704 -19422789.168 10 0 60526 72000.00000 0 -18474351.232 1311594.657 -17501510.955 10 0 60526 72900.00000 0 -20418810.911 716061.429 -15239248.056 10 0 60526 73800.00000 0 -22116349.764 349009.876 -12680296.617 10 0 60526 74700.00000 0 -23513486.292 180048.899 -9874669.679 10 0 60526 75600.00000 0 -24565975.267 169350.199 -6877102.263 10 0 60526 76500.00000 0 -25240572.103 269590.639 -3745969.515 10 0 60526 77400.00000 0 -25516349.641 428208.342 -542140.411 10 0 60526 78300.00000 0 -25385514.446 589875.044 2672209.710 10 0 60526 79200.00000 0 -24853691.042 699078.884 5834804.174 10 0 60526 80100.00000 0 -23939664.875 702708.051 8884464.096 10 0 60526 81000.00000 0 -22674597.293 552526.494 11762278.937 10 0 60526 81900.00000 0 -21100747.438 207438.286 14412726.905 10 0 60526 82800.00000 0 -19269755.852 -364553.329 16784725.128 10 0 60526 83700.00000 0 -17240562.016 -1184772.997 18832591.295 10 0 60526 84600.00000 0 -15077042.281 -2262750.977 20516900.490 10 0 60526 85500.00000 0 -12845465.360 -3595597.458 21805223.006 10 0 60527 0.00000 0 -10611869.487 -5167899.054 22672731.069 10 0 60527 900.00000 0 -8439466.516 -6952143.002 23102665.101 10 0 60527 1800.00000 0 -6386181.042 -8909650.444 23086650.821 10 0 60527 2700.00000 0 -4502419.972 -10991984.698 22624863.399 10 0 60527 3600.00000 0 -2829165.717 -13142776.634 21726034.236 10 0 60527 4500.00000 0 -1396469.170 -15299895.094 20407300.029 10 0 60527 5400.00000 0 -222404.175 -17397875.292 18693895.461 10 0 60527 6300.00000 0 687473.322 -19370507.236 16618693.396 10 0 60527 7200.00000 0 1340138.428 -21153478.990 14221598.966 10 0 60527 8100.00000 0 1754581.122 -22686966.418 11548806.606 10 0 60527 9000.00000 0 1960780.826 -23918062.221 8651931.745 10 0 60527 9900.00000 0 1998213.058 -24802942.502 5587031.656 10 0 60527 10800.00000 0 1913949.401 -25308679.033 2413532.546 10 0 60527 11700.00000 0 1760429.730 -25414619.168 -806917.494 10 0 60527 12600.00000 0 1593000.234 -25113272.826 -4011647.860 10 0 60527 13500.00000 0 1467321.663 -24410666.286 -7138193.499 10 0 60527 14400.00000 0 1436758.674 -23326144.990 -10125526.778 10 0 60527 15300.00000 0 1549862.836 -21891631.064 -12915267.520 10 0 60527 16200.00000 0 1848058.610 -20150364.820 -15452845.585 10 0 60527 17100.00000 0 2363633.408 -18155182.038 -17688591.082 10 0 60527 18000.00000 0 3118120.095 -15966399.171 -19578728.588 10 0 60527 18900.00000 0 4121143.480 -13649395.873 -21086253.877 10 0 60527 19800.00000 0 5369782.299 -11271997.555 -22181674.208 10 0 60527 20700.00000 0 6848475.730 -8901769.417 -22843596.327 10 0 60527 21600.00000 0 8529479.755 -6603337.227 -23059149.854 10 0 60527 22500.00000 0 10373854.727 -4435848.644 -22824237.424 10 0 60527 23400.00000 0 12332942.400 -2450682.667 -22143606.903 10 0 60527 24300.00000 0 14350269.481 -689503.561 -21030744.912 10 0 60527 25200.00000 0 16363796.468 817259.587 -19507594.816 10 0 60527 26100.00000 0 18308415.812 2051445.212 -17604106.105 10 0 60527 27000.00000 0 20118593.022 3007662.407 -15357625.610 10 0 60527 27900.00000 0 21731038.632 3693246.619 -12812144.237 10 0 60527 28800.00000 0 23087298.082 4127673.202 -10017415.806 10 0 60527 29700.00000 0 24136150.636 4341457.208 -7027966.982 10 0 60527 30600.00000 0 24835717.147 4374589.431 -3902019.234 10 0 60527 31500.00000 0 25155189.421 4274578.002 -700345.226 10 0 60527 32400.00000 0 25076110.364 4094180.924 2514917.076 10 0 60527 33300.00000 0 24593153.451 3888927.256 5681469.031 10 0 60527 34200.00000 0 23714371.273 3714532.706 8738051.183 10 0 60527 35100.00000 0 22460905.095 3624318.903 11625615.658 10 0 60527 36000.00000 0 20866169.666 3666744.606 14288449.480 10 0 60527 36900.00000 0 18974548.862 3883151.646 16675228.608 10 0 60527 37800.00000 0 16839657.353 4305818.856 18739984.347 10 0 60527 38700.00000 0 14522240.687 4956404.039 20442965.733 10 0 60527 39600.00000 0 12087800.213 5844837.902 21751383.539 10 0 60527 40500.00000 0 9604039.859 6968715.227 22640023.835 10 0 60527 41400.00000 0 7138238.332 8313208.515 23091721.152 10 0 60527 42300.00000 0 4754653.027 9851508.204 23097683.565 10 0 60527 43200.00000 0 2512060.385 11545772.539 22657664.204 10 0 60527 44100.00000 0 461531.938 13348549.714 21779975.931 10 0 60527 45000.00000 0 -1355463.972 15204615.805 20481348.172 10 0 60527 45900.00000 0 -2908557.619 17053155.082 18786627.256 10 0 60527 46800.00000 0 -4179509.204 18830194.985 16728323.962 10 0 60527 47700.00000 0 -5162733.093 20471197.030 14346014.591 10 0 60527 48600.00000 0 -5865292.467 21913697.688 11685604.451 10 0 60527 49500.00000 0 -6306363.324 23099890.198 8798465.335 10 0 60527 50400.00000 0 -6516188.713 23979039.529 5740461.363 10 0 60527 51300.00000 0 -6534565.501 24509628.534 2570880.173 10 0 60527 52200.00000 0 -6408925.982 24661143.482 -648711.064 10 0 60527 53100.00000 0 -6192094.404 24415421.418 -3855663.049 10 0 60527 54000.00000 0 -5939812.998 23767499.672 -6987471.624 10 0 60527 54900.00000 0 -5708142.854 22725928.558 -9983010.081 10 0 60527 55800.00000 0 -5550851.164 21312531.034 -12783740.869 10 0 60527 56700.00000 0 -5516897.685 19561616.916 -15334881.078 10 0 60527 57600.00000 0 -5648129.666 17518682.765 -17586496.752 10 0 60527 58500.00000 0 -5977285.861 15238651.132 -19494502.310 10 0 60527 59400.00000 0 -6526397.151 12783722.969 -21021543.469 10 0 60527 60300.00000 0 -7305654.171 10220933.932 -22137744.591 10 0 60527 61200.00000 0 -8312792.042 7619518.334 -22821304.438 10 0 60527 62100.00000 0 -9533019.728 5048192.718 -23058927.804 10 0 60527 63000.00000 0 -10939497.807 2572474.383 -22846084.263 10 0 60527 63900.00000 0 -12494344.504 252148.423 -22187089.091 10 0 60527 64800.00000 0 -14150126.929 -1861009.931 -21095005.483 10 0 60527 65700.00000 0 -15851773.522 -3725162.355 -19591370.982 10 0 60527 66600.00000 0 -17538825.650 -5309903.949 -17705754.904 10 0 60527 67500.00000 0 -19147931.961 -6597268.311 -15475157.026 10 0 60527 68400.00000 0 -20615479.045 -7582201.545 -12943261.074 10 0 60527 69300.00000 0 -21880246.554 -8272488.527 -10159559.451 10 0 60527 70200.00000 0 -22885974.449 -8688138.168 -7178368.094 10 0 60527 71100.00000 0 -23583734.390 -8860257.355 -4057752.284 10 0 60527 72000.00000 0 -23934006.195 -8829464.619 -858385.788 10 0 60527 72900.00000 0 -23908373.376 -8643913.632 2357633.470 10 0 60527 73800.00000 0 -23490768.310 -8357012.406 5527987.589 10 0 60527 74700.00000 0 -22678216.865 -8024936.106 8591339.286 10 0 60527 75600.00000 0 -21481053.461 -7704039.160 11488506.091 10 0 60527 76500.00000 0 -19922599.543 -7448275.600 14163586.518 10 0 60527 77400.00000 0 -18038320.492 -7306735.427 16565017.910 10 0 60527 78300.00000 0 -15874497.116 -7321399.139 18646547.541 10 0 60527 79200.00000 0 -13486467.227 -7525203.019 20368100.468 10 0 60527 80100.00000 0 -10936509.783 -7940494.586 21696529.693 10 0 60527 81000.00000 0 -8291457.971 -8577941.433 22606236.437 10 0 60527 81900.00000 0 -5620138.038 -9435938.218 23079650.489 10 0 60527 82800.00000 0 -2990737.302 -10500536.425 23107562.802 10 0 60527 83700.00000 0 -468207.432 -11745900.531 22689304.743 10 0 60527 84600.00000 0 1888192.461 -13135273.124 21832770.596 10 0 60527 85500.00000 0 4027113.656 -14622410.956 20554282.208 99